Denver, CO

5:26 AM MDT on March 29, 2017 (GMT -0600)
Front Range

Weather History for KFTG - April, 2013

Change the Weather History Date:

Tuesday, April 30, 2013

  Actual Average (KDEN) Record (KDEN)
Temperature  
Mean Temperature 54 °F -  
Max Temperature 66 °F 64 °F 90 °F (1992)
Min Temperature 39 °F 38 °F 19 °F (1909)
Degree Days  
Heating Degree Days 12    
Growing Degree Days 4 (Base 50)    
Moisture  
Dew Point 33 °F    
Average Humidity 55    
Maximum Humidity 87    
Minimum Humidity 19    
Precipitation  
Precipitation 0.00 in - - ()
Sea Level Pressure  
Sea Level Pressure 29.81 in    
Wind  
Wind Speed 12 mph (NE)    
Max Wind Speed 28 mph    
Max Gust Speed 33 mph    
Visibility 10 miles    
Events      
Averages and records for this station are not official NWS values.
T = Trace of Precipitation, MM = Missing Value Source: NWS Daily Summary

Daily Weather History Graph

Daily Weather History Graph

Search for Another Location

Airport or City:

Trip Planner

Search our weather history database for the weather conditions in past years. The results will help you decide how hot, cold, wet, or windy it might be!

Date:

Astronomy

Apr. 30, 2013 Rise Set
Actual Time 5:59 AM MDT 7:51 PM MDT
Civil Twilight 5:30 AM MDT 8:21 PM MDT
Nautical Twilight 4:54 AM MDT 8:56 PM MDT
Astronomical Twilight 4:16 AM MDT 9:34 PM MDT
Moon 12:16 AM MDT (4/30) 10:31 AM MDT (4/30)
Length of Visible Light 14h 50m
Length of Day
13h 52m
Waning Gibbous, 69% of the Moon is Illuminated
Apr 30
Waning Gibbous
May 2
Last Quarter
May 9
New
May 17
First Quarter
May 24
Full

Hourly Weather History & Observations

Time (MDT) Temp. Windchill Dew Point Humidity Pressure Visibility Wind Dir Wind Speed Gust Speed Precip Events Conditions
12:15 AM 62.6 °F - 26.6 °F 26% 29.68 in 10.0 mi SSW 13.8 mph - N/A   Clear
12:35 AM 64.4 °F - 24.8 °F 22% 29.68 in 10.0 mi SSW 12.7 mph - N/A   Clear
12:55 AM 66.2 °F - 23.0 °F 19% 29.68 in 10.0 mi SSW 11.5 mph - N/A   Clear
1:14 AM 62.6 °F - 24.8 °F 24% 29.69 in 10.0 mi SSW 9.2 mph - N/A   Clear
1:34 AM 64.4 °F - 23.0 °F 21% 29.68 in 10.0 mi SSW 12.7 mph - N/A   Clear
1:54 AM 64.4 °F - 23.0 °F 21% 29.68 in 10.0 mi SSW 11.5 mph - N/A   Clear
2:14 AM 55.4 °F - 30.2 °F 38% 29.69 in 10.0 mi West 10.4 mph - N/A   Clear
2:35 AM 57.2 °F - 28.4 °F 33% 29.68 in 10.0 mi WSW 11.5 mph - N/A   Clear
2:55 AM 59.0 °F - 26.6 °F 29% 29.68 in 10.0 mi SW 9.2 mph - N/A   Clear
3:14 AM 53.6 °F - 30.2 °F 41% 29.69 in 10.0 mi NE 8.1 mph - N/A   Clear
3:35 AM 53.6 °F - 30.2 °F 41% 29.69 in 10.0 mi Calm Calm - N/A   Clear
3:55 AM 51.8 °F - 30.2 °F 44% 29.69 in 10.0 mi SSE 8.1 mph - N/A   Clear
4:15 AM 53.6 °F - 30.2 °F 41% 29.69 in 10.0 mi SE 8.1 mph - N/A   Clear
4:34 AM 53.6 °F - 32.0 °F 44% 29.70 in 10.0 mi SSE 5.8 mph - N/A   Clear
4:55 AM 55.4 °F - 32.0 °F 41% 29.71 in 10.0 mi ESE 5.8 mph - N/A   Clear
5:15 AM 51.8 °F - 35.6 °F 54% 29.74 in 10.0 mi NNE 19.6 mph 32.2 mph N/A   Clear
5:35 AM 44.6 °F 37.2 °F 35.6 °F 71% 29.76 in 10.0 mi NE 17.3 mph 21.9 mph N/A   Clear
5:55 AM 42.8 °F 33.5 °F 33.8 °F 70% 29.76 in 10.0 mi NE 23.0 mph 29.9 mph N/A   Clear
6:15 AM 42.8 °F 34.8 °F 33.8 °F 70% 29.78 in 10.0 mi ENE 17.3 mph 25.3 mph N/A   Clear
6:34 AM 41.0 °F 33.9 °F 33.8 °F 76% 29.79 in 10.0 mi ENE 12.7 mph 18.4 mph N/A   Clear
6:52 AM 41.0 °F 33.9 °F 35.6 °F 81% 29.81 in 10.0 mi ENE 12.7 mph - N/A   Clear
7:50 AM 44.6 °F 40.7 °F 37.4 °F 76% 29.86 in 40.0 mi NNE 6.9 mph - N/A   Mostly Cloudy
8:48 AM 44.6 °F 40.2 °F 37.4 °F 76% 29.86 in 50.0 mi ESE 8.1 mph - N/A   Mostly Cloudy
9:50 AM 48.2 °F - 37.4 °F 66% 29.85 in 50.0 mi East 4.6 mph - N/A   Mostly Cloudy
10:48 AM 50.0 °F - 39.2 °F 66% 29.85 in 40.0 mi East 9.2 mph - N/A   Mostly Cloudy
11:50 AM 50.0 °F - 39.2 °F 66% 29.83 in 40.0 mi ENE 9.2 mph - N/A   Mostly Cloudy
12:53 PM 53.6 °F - 39.2 °F 58% 29.84 in 40.0 mi NE 8.1 mph - N/A   Mostly Cloudy
1:50 PM 57.2 °F - 39.2 °F 51% 29.82 in 40.0 mi NE 11.5 mph 18.4 mph N/A   Mostly Cloudy
2:50 PM 57.2 °F - 39.2 °F 51% 29.81 in 40.0 mi NE 15.0 mph 21.9 mph N/A   Mostly Cloudy
3:55 PM 59.0 °F - 37.4 °F 45% 29.83 in 40.0 mi NE 18.4 mph 21.9 mph N/A   Mostly Cloudy
4:50 PM 55.4 °F - 35.6 °F 47% 29.83 in 40.0 mi NNE 13.8 mph - N/A   Mostly Cloudy
5:55 PM 57.2 °F - 37.4 °F 48% 29.82 in 40.0 mi NE 17.3 mph - N/A   Mostly Cloudy
6:55 PM 53.6 °F - 35.6 °F 51% 29.84 in 40.0 mi North 10.4 mph - N/A   Mostly Cloudy
7:55 PM 50.0 °F - 35.6 °F 58% 29.87 in 40.0 mi North 13.8 mph - N/A   Mostly Cloudy
8:55 PM 50.0 °F - 33.8 °F 54% 29.92 in 10.0 mi NNE 15.0 mph 20.7 mph N/A   Overcast
9:15 PM 50.0 °F - 33.8 °F 54% 29.95 in 10.0 mi North 27.6 mph 33.4 mph N/A   Overcast
9:35 PM 41.0 °F 31.1 °F 35.6 °F 81% 29.97 in 10.0 mi North 23.0 mph 31.1 mph N/A   Overcast
9:55 PM 41.0 °F 31.4 °F 35.6 °F 81% 29.98 in 10.0 mi North 21.9 mph 26.5 mph N/A   Overcast
10:15 PM 41.0 °F 31.6 °F 35.6 °F 81% 29.99 in 10.0 mi NNE 20.7 mph - N/A   Overcast
10:35 PM 41.0 °F 32.5 °F 35.6 °F 81% 30.00 in 10.0 mi North 17.3 mph 24.2 mph N/A   Overcast
10:55 PM 41.0 °F 33.1 °F 35.6 °F 81% 30.02 in 10.0 mi North 15.0 mph - N/A   Overcast
11:15 PM 41.0 °F 33.9 °F 35.6 °F 81% 30.02 in 10.0 mi NNE 12.7 mph - N/A   Overcast
11:35 PM 41.0 °F 35.2 °F 35.6 °F 81% 30.04 in 10.0 mi NNE 9.2 mph 18.4 mph N/A   Overcast
11:55 PM 39.2 °F 33.6 °F 35.6 °F 87% 30.04 in 10.0 mi NE 8.1 mph - N/A   Overcast